This demonstration page uses our WeatherBlox Daily Observations layout. Learn more.

Left ArrowRight Arrow

39.51506, -84.39828

Hourly Observations for March 2, 2020

Temp ( °F °C ) Dew Point ( °F °C ) Humidity (%) Winds ( mph kmh ) Pressure ( in mb ) Visibility ( mi km ) Precip ( " mm )
12:15 am 00:15 Cloudy 58 14.4 37 2.5 45 45 SSW 16 26 29.9 1012 10 16.0934 0 0
12:35 am 00:35 Mostly Cloudy 57 14.1 37 2.5 46 46 SSW 17 28 29.9 1012 10 16.0934 0 0
12:55 am 00:55 Cloudy 58 14.2 37 2.7 46 46 SW 26 43 29.91 1013 10 16.0934 0 0
1:15 am 01:15 Mostly Cloudy with Nearby Thunderstorms 57 14 37 2.7 47 47 SW 20 31 29.91 1013 10 16.0934 0 0
1:35 am 01:35 Mostly Cloudy 57 13.9 37 2.7 47 47 SSW 23 37 29.9 1013 10 16.0934 0 0
1:55 am 01:55 Clear 56 13.4 37 2.8 49 49 SSW 18 30 29.9 1013 10 16.0934 0 0
2:15 am 02:15 Partly Cloudy 56 13.3 37 2.9 50 50 SSW 14 22 29.89 1012 10 16.0934 0 0
2:35 am 02:35 Partly Cloudy 55 12.9 37 2.9 51 51 SSW 13 20 29.88 1012 10 16.0934 0 0
2:55 am 02:55 Mostly Cloudy 55 12.8 37 2.8 51 51 SSW 15 24 29.87 1012 10 16.0934 0 0
3:15 am 03:15 Partly Cloudy 54 12.4 37 2.7 52 52 SSW 13 20 29.86 1011 10 16.0934 0 0
3:35 am 03:35 Clear 54 12.3 36 2.4 51 51 SSW 13 20 29.86 1011 10 16.0934 0 0
3:55 am 03:55 Clear 53 11.6 37 2.6 54 54 SSW 10 17 29.85 1011 10 16.0934 0 0
4:15 am 04:15 Partly Cloudy 53 11.7 37 2.7 54 54 SSW 13 20 29.84 1011 10 16.0934 0 0
4:35 am 04:35 Partly Cloudy 53 11.7 37 2.8 55 55 SSW 15 24 29.84 1011 10 16.0934 0 0
4:55 am 04:55 Cloudy 53 11.9 38 3.6 57 57 SW 16 26 29.84 1011 10 16.0934 0 0
5:15 am 05:15 Cloudy 53 11.9 40 4.5 61 61 SW 14 22 29.84 1011 10 16.0934 0 0
5:35 am 05:35 Cloudy 53 11.6 40 4.6 62 62 SW 10 17 29.84 1011 10 16.0934 0 0
5:55 am 05:55 Cloudy 53 11.4 40 4.5 63 63 SSW 9 15 29.85 1011 10 16.0934 0 0
6:15 am 06:15 Cloudy 53 11.4 40 4.7 64 64 SSW 10 17 29.84 1010 10 16.0934 0 0
6:35 am 06:35 Cloudy 52 11.3 41 4.9 65 65 SW 7 11 29.84 1010 10 16.0934 0 0
6:55 am 06:55 Cloudy with Drizzle 50 10 41 5.1 72 72 SW 5 7 29.84 1010 10 16.0934 0 0
7:15 am 07:15 Cloudy with Light Rain 51 10.6 41 4.9 68 68 SW 5 7 29.83 1010 10 16.0934 0 0
7:35 am 07:35 Cloudy with Light Rain 50 10.1 44 6.4 78 78 SSW 12 19 29.83 1010 7 11.26538 0 0
7:55 am 07:55 Cloudy with Light Rain 49 9.5 45 7.4 87 87 SSW 8 13 29.83 1010 5 8.0467 0 0
8:15 am 08:15 Cloudy with Light Rain 49 9.3 46 8 92 92 S 8 13 29.83 1010 4 6.43736 0 0
8:35 am 08:35 Cloudy with Light Rain 49 9.4 47 8.1 92 92 SSW 8 13 29.83 1010 7 11.26538 0 0
8:55 am 08:55 Cloudy with Light Rain 49 9.3 47 8.3 94 94 S 9 15 29.83 1010 5 8.0467 0 0
9:15 am 09:15 Cloudy with Light Rain 49 9.5 47 8.4 93 93 S 10 17 29.82 1010 2 3.21868 0.01 0.254
9:35 am 09:35 Cloudy 49 9.7 47 8.5 92 92 S 9 15 29.82 1010 10 16.0934 0.01 0.254
9:55 am 09:55 Cloudy 50 9.8 47 8.6 92 92 SSW 9 15 29.81 1009 10 16.0934 0.01 0.254
10:15 am 10:15 Cloudy 50 9.9 47 8.6 92 92 SSW 8 13 29.81 1009 10 16.0934 0 0
10:35 am 10:35 Cloudy 50 10.1 48 8.8 92 92 SSW 12 19 29.8 1009 7 11.26538 0 0
10:55 am 10:55 Cloudy with Mist and Fog 50 10 48 9 94 94 SSW 10 17 29.8 1009 7 11.26538 0 0
11:15 am 11:15 Cloudy 50 10.2 48 8.9 92 92 SSW 9 15 29.8 1009 10 16.0934 0 0
11:35 am 11:35 Cloudy 50 10.1 48 9.1 94 94 SW 12 19 29.8 1009 7 11.26538 0 0
11:55 am 11:55 Cloudy with Mist and Fog 50 9.9 49 9.2 95 95 SSW 10 17 29.81 1009 5 8.0467 0 0
12:15 pm 12:15 Cloudy with Light Rain 50 10 49 9.5 97 97 SW 12 19 29.8 1009 1.75 2.816345 0 0
12:35 pm 12:35 Cloudy with Drizzle 50 10.2 50 9.8 97 97 SSW 8 13 29.79 1009 3 4.82802 0 0
12:55 pm 12:55 Cloudy with Rain 50 10.2 49 9.7 97 97 SSW 10 17 29.78 1008 3.5 5.63269 0 0
1:15 pm 13:15 Cloudy with Mist and Fog 50 10.1 49 9.7 97 97 SSW 12 19 29.77 1008 4 6.43736 0 0
1:35 pm 13:35 Cloudy with Mist and Fog 50 10.2 50 9.9 98 98 SSW 10 17 29.76 1008 3 4.82802 0 0
1:55 pm 13:55 Cloudy with Mist and Fog 51 10.3 50 9.9 97 97 SW 10 17 29.75 1007 7 11.26538 0 0
2:15 pm 14:15 Cloudy 51 10.4 50 10 97 97 SW 10 17 29.75 1007 10 16.0934 0 0
2:35 pm 14:35 Cloudy 51 10.6 50 10 96 96 SW 9 15 29.75 1007 10 16.0934 0 0
2:55 pm 14:55 Cloudy with Mist and Fog 51 10.6 50 9.9 95 95 SW 10 17 29.75 1007 5 8.0467 0.01 0.254
3:15 pm 15:15 Cloudy 51 10.8 50 10 95 95 SW 9 15 29.74 1007 10 16.0934 0 0
3:35 pm 15:35 Cloudy 52 10.9 50 10.1 95 95 SW 7 11 29.74 1007 10 16.0934 0 0
3:55 pm 15:55 Cloudy 52 11.3 50 10.2 93 93 SW 7 11 29.74 1007 10 16.0934 0 0
4:15 pm 16:15 Cloudy 53 11.5 51 10.3 92 92 SW 7 11 29.74 1007 10 16.0934 0 0
4:35 pm 16:35 Cloudy 52 11.3 50 10.1 92 92 SW 8 13 29.75 1007 10 16.0934 0 0
4:55 pm 16:55 Cloudy 52 11.3 50 10 92 92 SW 10 17 29.75 1007 10 16.0934 0 0
5:15 pm 17:15 Cloudy 52 11.2 50 9.9 92 92 SW 9 15 29.76 1008 10 16.0934 0 0
5:35 pm 17:35 Cloudy with Mist and Fog 52 11 50 10.2 95 95 SW 8 13 29.77 1008 4 6.43736 0 0
5:55 pm 17:55 Cloudy with Mist and Fog 51 10.7 50 10.2 97 97 SW 7 11 29.78 1008 3 4.82802 0 0
6:15 pm 18:15 Cloudy with Mist and Fog 51 10.5 50 10.2 98 98 SW 6 9 29.78 1008 4 6.43736 0 0
6:35 pm 18:35 Cloudy with Mist and Fog 51 10.5 51 10.3 99 99 S 5 7 29.78 1008 3 4.82802 0 0
6:55 pm 18:55 Cloudy with Mist and Fog 51 10.5 51 10.3 99 99 S 6 9 29.77 1008 4 6.43736 0 0
7:15 pm 19:15 Cloudy with Mist and Fog 51 10.5 51 10.4 99 99 SSW 7 11 29.78 1008 4 6.43736 0 0
7:35 pm 19:35 Cloudy with Mist and Fog 51 10.5 51 10.3 99 99 SSW 3 6 29.78 1008 5 8.0467 0 0
7:55 pm 19:55 Cloudy with Mist and Fog 51 10.5 51 10.3 99 99 SSW 3 6 29.78 1008 5 8.0467 0 0
8:15 pm 20:15 Cloudy with Mist and Fog 51 10.4 51 10.3 99 99 SW 3 6 29.78 1008 5 8.0467 0 0
8:35 pm 20:35 Cloudy with Mist and Fog 51 10.3 50 10.2 99 99 SSW 5 7 29.78 1008 3.5 5.63269 0 0
8:55 pm 20:55 Cloudy with Mist and Fog 51 10.7 51 10.5 99 99 SSW 7 11 29.78 1008 5 8.0467 0 0
9:15 pm 21:15 Cloudy with Mist and Fog 51 10.8 51 10.5 98 98 SSW 7 11 29.78 1008 7 11.26538 0 0
9:35 pm 21:35 Cloudy with Mist and Fog 51 10.6 51 10.3 98 98 S 6 9 29.77 1008 5 8.0467 0 0
9:55 pm 21:55 Cloudy with Mist and Fog 51 10.6 50 10.1 97 97 SSW 7 11 29.78 1008 7 11.26538 0 0
10:15 pm 22:15 Cloudy with Mist and Fog 51 10.3 50 10 98 98 SW 3 6 29.77 1008 5 8.0467 0 0
10:35 pm 22:35 Cloudy with Mist and Fog 50 10.2 50 10 99 99 Calm 29.76 1008 4 6.43736 0 0
10:55 pm 22:55 Cloudy with Light Rain 50 10.2 50 10 99 99 Calm 29.76 1008 3 4.82802 0 0
11:15 pm 23:15 Cloudy with Heavy Rain 50 10.1 50 10 99 99 Calm 29.75 1007 2 3.21868 0 0
11:35 pm 23:35 Cloudy with Mist and Fog 50 9.8 49 9.7 99 99 NW 3 6 29.74 1007 1.75 2.816345 0 0
11:55 pm 23:55 Cloudy with Mist and Fog 50 9.9 50 9.8 99 99 Calm 29.73 1007 2 3.21868 0 0

Powered by AerisWeather